Regional Weather Roundup
Issued by NWS Midland/Odessa, TX

Home | Current Version | Previous Version | Text Only | Print | Product List | Glossary On
Versions: 1 2 3 4 5 6 7 8 9 10 11 12 13 14 15 16 17 18 19 20 21 22 23 24 25 26 27 28 29 30 31 32 33 34 35 36 37 38 39 40 41 42 43 44 45 46 47 48 49 50
000
ASUS44 KMAF 040210
RWRMAF
MIDLAND AREA WEATHER ROUNDUP
NATIONAL WEATHER SERVICE MIDLAND TX
900 PM CDT SUN MAY 03 2015

...IN SOUTHWEST TEXAS AND SOUTHEAST NEW MEXICO...

CITY           SKY/WX    TMP DP  RH WIND       PRES   REMARKS
ALPINE         MOCLDY    70  53  54 E9G16     30.02R
ANDREWS        FAIR      75  53  45 SW10      29.96R
ARTESIA        PTCLDY    75  43  31 S13       29.86R
BIG SPRING     CLOUDY    79  49  35 SE14G20   29.93R
CARLSBAD       MOCLDY    72  49  44 SE9       29.88R
DRYDEN           N/A     77  58  51 E14       29.88R
FORT STOCKTON  CLOUDY    72  55  55 E14       29.94R
GUAD PASS        N/A    N/A N/A N/A MISG        N/A
HOBBS          MOCLDY    68  46  45 S18G30    29.93F
MARFA          PTCLDY    63  54  72 NE9       29.98R
MIDLAND AIRPK  CLOUDY    76  54  46 S14G20    29.94R
MIDLAND INTL   CLOUDY    75  54  47 S14       29.93R
ODESSA         CLOUDY    74  54  49 S16       29.95R
PECOS          CLOUDY    70  49  47 E13       29.89F
PRESIDIO       FAIR      82  54  38 MISG      29.78R
SEMINOLE       DRIZZLE   70  46  42 S25G44    29.93S
SNYDER         MOCLDY    74  51  44 SE9       29.91R
WINK           CLOUDY    74  46  36 S13       29.92R
$$
...OTHER STATIONS IN TEXAS...

CITY           SKY/WX    TMP DP  RH WIND       PRES   REMARKS
ABILENE        CLEAR     73  54  51 SE14      29.90R
AMARILLO       CLOUDY    67  45  45 SE9       29.89R
AUSTIN         PTCLDY    74  63  68 SE10      29.97R
BROWNSVILLE    CLEAR     75  70  84 SE9       29.94R
CORPUS CHRISTI PTCLDY    75  68  78 SE17      29.96R
DALLAS FTW     PTCLDY    71  57  61 SE9       29.95R
DEL RIO        CLEAR     79  59  50 SE8       29.86R
EL PASO        PTCLDY    83  31  15 W8        29.84R
HOUSTON INT    PTCLDY    72  59  63 S6        30.02R
LUBBOCK        CLOUDY    77  48  35 S17       29.90R THUNDER
SAN ANGELO     CLEAR     76  52  43 S7        29.90R
SAN ANTONIO    PTCLDY    76  63  64 SE16      29.96R
WACO           CLEAR     70  55  59 SE8       29.96R
WICHITA FALLS  NOT AVBL
$$
...OTHER LOCATIONS IN NEW MEXICO...

CITY           SKY/WX    TMP DP  RH WIND       PRES   REMARKS
ALAMAGORDO     MOCLDY    77  32  19 W10G17    29.87R
ALBUQUERQUE    PTCLDY    68  35  29 N9        29.97R
CANNON AFB     PTCLDY    68  39  34 NE9       29.88R
CLOVIS         CLEAR     63  46  55 E10       29.89R
HOLLOMAN AFB   MOCLDY    80  29  15 NW12      29.84S
ROSWELL        PTCLDY    74  41  30 S14       29.84R
RUIDOSO        PTCLDY    64  25  22 W7        30.05R
SANTA FE       MOCLDY    59  36  42 N16       30.03R
TRUTH OR CONSE MOCLDY    72  32  23 NW7       29.90S
TUCUMCARI        N/A     65  49  56 E3        29.84S
$$



USA.gov is the U.S. government's official web portal to all federal, state and local government web resources and services.